If you wish to contribute or participate in the discussions about articles you are invited to join SKYbrary as a registered user

 Actions

Parsabad-Moghan Airport

From SKYbrary Wiki

OITP
Airport
ICAO: OITP – IATA: PFQ
Summary
Name Parsabad-Moghan Airport
Region Middle East
Territory Iran IR.gif
Location Parsabad, Ardabil Province
Serving Parsabad
Elevation 77.114 m
253 ft77.114 m
Coordinates 39° 36' 25.90" N, 47° 52' 37.44" E
Runways
Designator Length Width Surface ROPS
11/29 2595 m8,513.78 ft
35 m114.829 ft
ASP /


METAR
Observation OITP 130400Z 13010KT CAVOK 15/12 Q1027
Station Parsabad-Moghan Airport
Date/Time 13 October 2019 04:00:00
Wind direction 130°
Wind speed 10 kts
Lowest cloud amount clouds and visibility OK
Temperature 15°C
Dew point 12°C
Humidity 82%
QNH 1027 hPa
Weather condition n/a

Airport serving Parsabad in northern Iran close to the border with Azerbaijan.

Climatology

Temperate semi-arid climate (Köppen climate classification BSk).

Maps

Terrain

Loading map...

Airport Layout

Loading map...


Accidents & Serious Incidents at or in vicinity of OITP

None on SKYbrary